Winter Haven, FL

11:35 AM EST on January 19, 2017 (GMT -0500)
Winter Haven's-Gilbert

Weather History for KGIF - February, 2014

Change the Weather History Date:

Friday, February 7, 2014

  Actual Average Record
Temperature  
Mean Temperature 54 °F -  
Max Temperature 57 °F 73 °F 87 °F (1971)
Min Temperature 50 °F 50 °F 32 °F (1984)
Degree Days  
Heating Degree Days 12    
Growing Degree Days 4 (Base 50)    
Moisture  
Dew Point 53 °F    
Average Humidity 89    
Maximum Humidity 94    
Minimum Humidity 83    
Precipitation  
Precipitation 0.03 in - - ()
Sea Level Pressure  
Sea Level Pressure 30.17 in    
Wind  
Wind Speed 10 mph (NNE)    
Max Wind Speed 14 mph    
Max Gust Speed -    
Visibility 8 miles    
Events Rain    
Averages and records for this station are not official NWS values.
T = Trace of Precipitation, MM = Missing Value Source: NWS Daily Summary

Daily Weather History Graph

Daily Weather History Graph

Search for Another Location

Airport or City:

Trip Planner

Search our weather history database for the weather conditions in past years. The results will help you decide how hot, cold, wet, or windy it might be!

Date:

Astronomy

Feb. 07, 2014 Rise Set
Actual Time 7:10 AM EST 6:12 PM EST
Civil Twilight 6:46 AM EST 6:36 PM EST
Nautical Twilight 6:18 AM EST 7:04 PM EST
Astronomical Twilight 5:50 AM EST 7:31 PM EST
Moon 12:27 PM EST (2/7) 1:21 AM EST (2/7)
Length of Visible Light 11h 50m
Length of Day
11h 01m
First Quarter, 59% of the Moon is Illuminated
Feb 7
First Quarter
Feb 14
Full
Feb 22
Last Quarter
Mar 1
New
Mar 8
First Quarter

Hourly Weather History & Observations

Time (EST) Temp. Dew Point Humidity Pressure Visibility Wind Dir Wind Speed Gust Speed Precip Events Conditions
12:44 AM 50.0 °F 46.0 °F 86% 30.19 in 10.0 mi North 12.7 mph - N/A   Overcast
12:53 AM 50.0 °F 45.0 °F 83% 30.18 in 10.0 mi North 13.8 mph - N/A   Overcast
1:53 AM 50.0 °F 46.0 °F 86% 30.17 in 10.0 mi NNE 9.2 mph - N/A   Overcast
2:53 AM 51.1 °F 46.0 °F 83% 30.15 in 10.0 mi NNE 12.7 mph - N/A   Overcast
3:53 AM 51.1 °F 46.9 °F 86% 30.14 in 10.0 mi NE 10.4 mph - N/A   Overcast
4:53 AM 53.1 °F 48.0 °F 83% 30.14 in 10.0 mi NNE 8.1 mph - N/A   Overcast
5:53 AM 53.1 °F 48.9 °F 86% 30.16 in 10.0 mi North 8.1 mph - N/A   Overcast
6:45 AM 53.1 °F 48.9 °F 86% 30.16 in 10.0 mi NNE 9.2 mph - N/A   Overcast
6:53 AM 53.1 °F 50.0 °F 89% 30.16 in 10.0 mi NNE 10.4 mph - N/A   Overcast
7:53 AM 54.0 °F 50.0 °F 86% 30.18 in 3.0 mi North 6.9 mph - 0.01 in Rain Rain
8:20 AM 53.1 °F 51.1 °F 93% 30.19 in 4.0 mi North 8.1 mph - 0.01 in Rain Light Rain
8:29 AM 53.1 °F 51.1 °F 93% 30.19 in 2.0 mi North 8.1 mph - 0.01 in Rain Light Rain
8:37 AM 53.1 °F 51.1 °F 93% 30.19 in 2.0 mi North 9.2 mph - 0.02 in Rain Light Rain
8:44 AM 53.1 °F 51.1 °F 93% 30.20 in 3.0 mi North 8.1 mph - 0.02 in Rain Light Rain
8:53 AM 53.1 °F 51.1 °F 93% 30.20 in 6.0 mi NNE 6.9 mph - 0.02 in   Overcast
9:21 AM 54.0 °F 52.0 °F 93% 30.20 in 10.0 mi NE 6.9 mph - N/A   Overcast
9:53 AM 55.9 °F 53.1 °F 90% 30.21 in 10.0 mi NNE 6.9 mph - N/A   Overcast
10:19 AM 55.9 °F 54.0 °F 93% 30.21 in 10.0 mi NNE 9.2 mph - N/A   Overcast
10:53 AM 57.0 °F 55.0 °F 93% 30.21 in 10.0 mi NNE 8.1 mph - N/A   Overcast
11:25 AM 57.0 °F 54.0 °F 89% 30.21 in 10.0 mi North 8.1 mph - N/A   Overcast
11:53 AM 57.0 °F 54.0 °F 89% 30.21 in 10.0 mi NNE 10.4 mph - N/A   Overcast
12:20 PM 57.0 °F 54.0 °F 89% 30.20 in 10.0 mi NNE 10.4 mph - N/A   Overcast
12:53 PM 55.9 °F 53.1 °F 90% 30.19 in 8.0 mi NNE 8.1 mph - N/A   Overcast
1:53 PM 57.0 °F 53.1 °F 87% 30.17 in 7.0 mi North 9.2 mph - N/A   Overcast
2:50 PM 57.2 °F 53.6 °F 88% 30.15 in 10.0 mi NNE 8.1 mph - N/A   Overcast
2:53 PM 57.9 °F 54.0 °F 87% 30.15 in 10.0 mi NNE 6.9 mph - N/A   Overcast
3:06 PM 57.9 °F 54.0 °F 87% 30.15 in 10.0 mi NNE 9.2 mph - N/A   Overcast
3:31 PM 57.9 °F 54.0 °F 87% 30.15 in 9.0 mi NNE 9.2 mph - N/A   Overcast
3:53 PM 57.9 °F 54.0 °F 87% 30.15 in 10.0 mi NNE 10.4 mph - N/A   Overcast
4:00 PM 57.9 °F 54.0 °F 87% 30.15 in 10.0 mi North 11.5 mph - N/A   Overcast
4:53 PM 57.9 °F 54.0 °F 87% 30.15 in 10.0 mi NNE 9.2 mph - N/A   Overcast
5:01 PM 57.9 °F 54.0 °F 87% 30.15 in 10.0 mi NE 6.9 mph - N/A   Overcast
5:32 PM 57.9 °F 55.0 °F 90% 30.16 in 6.0 mi NNE 6.9 mph - N/A   Overcast
5:44 PM 57.9 °F 55.0 °F 90% 30.16 in 7.0 mi NE 6.9 mph - N/A   Overcast
5:51 PM 57.2 °F 55.4 °F 94% 30.16 in 10.0 mi NE 6.9 mph - N/A   Overcast
5:53 PM 57.9 °F 55.0 °F 90% 30.16 in 10.0 mi NE 5.8 mph - N/A   Overcast
6:35 PM 57.9 °F 55.0 °F 90% 30.16 in 10.0 mi North 5.8 mph - N/A   Overcast
6:53 PM 57.9 °F 55.0 °F 90% 30.15 in 10.0 mi NNE 5.8 mph - N/A   Overcast
7:53 PM 57.9 °F 55.0 °F 90% 30.15 in 10.0 mi NNE 6.9 mph - N/A   Overcast
8:07 PM 57.9 °F 55.0 °F 90% 30.16 in 10.0 mi North 6.9 mph - N/A   Overcast
8:37 PM 57.9 °F 55.0 °F 90% 30.18 in 9.0 mi North 10.4 mph - N/A   Overcast
8:49 PM 57.2 °F 55.4 °F 94% 30.18 in 8.0 mi North 9.2 mph - N/A   Overcast
8:53 PM 57.9 °F 55.0 °F 90% 30.18 in 8.0 mi North 9.2 mph - N/A   Overcast
9:18 PM 57.0 °F 55.0 °F 93% 30.18 in 7.0 mi North 12.7 mph - N/A   Overcast
9:53 PM 55.9 °F 54.0 °F 93% 30.18 in 6.0 mi NNE 12.7 mph - N/A   Overcast
10:53 PM 55.9 °F 54.0 °F 93% 30.17 in 5.0 mi NNE 11.5 mph - N/A   Overcast
11:53 PM 55.9 °F 54.0 °F 93% 30.17 in 6.0 mi NNE 8.1 mph - N/A   Overcast